Content
SEND FEEDBACK

Daily
Averages
Monthly
Summary
United States of America

POTTS JUNCTION, GUAM


Home > North America > United States > Guam
Elevation: 360 feet     Latitude: 13 33N     Longitude: 144 50E

WEATHER
 
SELECT A DAY
Number of Records: 213,899;   Date Range: 1/1/95 - 10/23/14
 
SHARE

PRINT THIS DATA

[ ← Previous Day ]
WEATHER ALMANAC - JULY 2, 2013
[ Next Day → ]
[ °C ]   °F
Weather ElementAverageHighLow
Temperature85.9 °F91 °F (11:54 am)80.1 °F (5:54 am)
Dewpoint75.2 °F77 °F (6:54 pm)72 °F (11:54 am)
Humidity70.8 %85 % (2:54 am)53 % (11:54 am)
Barometer29.86 in29.90 in (9:30 am)29.81 in (4:54 pm)
Wind Speed8.1 mph15 mph (2:54 pm)
Weather ElementAverage
Visibility10 mi
Wind DirectionENE (66.5 °)

Weather ElementTotal
Precipitation---
Cooling Degree Days20.6 (Base 65)
Growing Degree Days35.6 (Base 50)
Averaged from 26 records on July 2, 2013
WEATHER CONDITIONS BREAKOUT
WIND DIRECTION BREAKOUT
WEATHER BY HOUR - JULY 2, 2013
[ °C ]   °F
Local TimeTemperatureDewpointHumidityBarometerVisibilityWind DirectionWind SpeedGust SpeedPrecipitationEventsConditions
1:54 AM82.0 °F75.9 °F82 %29.83 in10.0 miENE (60°)4.6 mphClear
2:54 AM81.0 °F75.9 °F85 %29.83 in10.0 miNE (50°)4.6 mphClear
3:54 AM81.0 °F75.0 °F82 %29.83 in10.0 miNE (50°)5.8 mphClear
4:54 AM81.0 °F75.9 °F85 %29.83 in10.0 miENE (60°)5.8 mphClear
5:54 AM80.1 °F75.0 °F85 %29.84 in10.0 miNE (40°)3.5 mphClear
6:54 AM82.9 °F75.9 °F79 %29.86 in10.0 miENE (60°)4.6 mphClear
7:54 AM84.9 °F75.9 °F74 %29.87 in10.0 miNE (50°)4.6 mphClear
8:54 AM88.0 °F75.0 °F65 %29.88 in10.0 miNE (50°)9.2 mphScattered Clouds
9:30 AM87.8 °F75.2 °F66 %29.90 in10.0 miNE (50°)6.9 mphOvercast
9:54 AM89.1 °F73.9 °F61 %29.88 in10.0 miENE (60°)9.2 mphScattered Clouds
10:25 AM89.6 °F75.2 °F62 %29.90 in10.0 miENE (60°)8.1 mphMostly Cloudy
10:54 AM89.1 °F75.0 °F63 %29.88 in10.0 miEast (90°)9.2 mphMostly Cloudy
11:06 AM89.6 °F73.4 °F59 %29.90 in10.0 miEast (100°)9.2 mphScattered Clouds
11:54 AM91.0 °F72.0 °F53 %29.87 in10.0 miENE (60°)10.4 mphPartly Cloudy
12:54 PM90.0 °F75.0 °F61 %29.86 in10.0 miENE (70°)10.4 mphScattered Clouds
1:54 PM91.0 °F73.9 °F57 %29.83 in10.0 miEast (80°)13.8 mphPartly Cloudy
2:54 PM89.1 °F75.9 °F65 %29.83 in10.0 miENE (60°)15.0 mphPartly Cloudy
3:54 PM89.1 °F73.9 °F61 %29.82 in10.0 miENE (70°)10.4 mphPartly Cloudy
4:54 PM87.1 °F75.0 °F67 %29.81 in10.0 miENE (70°)13.8 mphPartly Cloudy
5:54 PM86.0 °F75.9 °F72 %29.82 in10.0 miENE (70°)10.4 mphPartly Cloudy
6:54 PM84.0 °F77.0 °F79 %29.83 in10.0 miEast (80°)6.9 mphPartly Cloudy
7:54 PM84.0 °F77.0 °F79 %29.85 in10.0 miEast (90°)5.8 mphPartly Cloudy
8:54 PM84.0 °F75.9 °F76 %29.87 in10.0 miEast (80°)6.9 mphPartly Cloudy
9:54 PM84.9 °F75.9 °F74 %29.88 in10.0 miENE (70°)5.8 mphScattered Clouds
10:54 PM84.0 °F75.9 °F76 %29.88 in10.0 miENE (70°)8.1 mph0.00 inPartly Cloudy
11:54 PM84.0 °F75.0 °F74 %29.87 in10.0 miEast (80°)6.9 mphClear
Hourly data recorded from PGUM, located miles away from Potts Junction, Guam







STORIES FROM OUR PARTNERS